User: anonymous   Login
Location: Fort Worth, Tx
(32.7431°N, 97.3695°W)
Time: 11:45:56
(UTC-04:00)
Language:

XW-2F - Orbit

View from above orbital plane
View from above orbital plane
View from above satellite
View from above satellite

Ground track
Ground track

The orbit data is extracted from the following two-line orbital elements,

1 40910U 15049M   20263.02654617  .00000713  00000-0  38198-4 0  9991
2 40910  97.4706 265.4513 0015797  39.9318  24.3881 15.18103041276530
Epoch (UTC): 19 September 2020 00:38:13
Eccentricity: 0.0015797
inclination: 97.4706°
perigee height: 500 km
apogee height: 522 km
right ascension of ascending node: 265.4513°
argument of perigee: 39.9318°
revolutions per day: 15.18103041
mean anomaly at epoch: 24.3881°
orbit number at epoch: 27653

The dashed part of the orbit path shows where the satellite is in the earth's shadow,  

DLR